COSMOS 1275 DEB

Satellite information

Favourite Embed

Satellite Type and Status

DEBRISIN ORBIT

Key statistics

Satellite COSMOS 1275 DEB at a glance.

Uptime

16159

Days in orbit

Revolutions

≈ 14.1

Per day

Orbit

LEO

Low Earth Orbit

Inclination

82.8

Latest

Satellite identification and parameters

Extended collection of information and parameters for COSMOS 1275 DEB.

Object identification

Identified? True

Debris? True

Object name: COSMOS 1275 DEB

International designator: 1981-053PT

Object number (NORAD): 42107

Object ID (CCSDS): 42107

Country: COMMONWEALTH OF INDEPENDENT STATES (CIS)

Current information (Y/N): Y

RCS size: SMALL

Orbital parameters

Period: 102.164 minutes

Inclination: 82.8081 deg

SMA: 7239.232 km

Apoapsis: 896.782 km

Periapsis: 825.413 km

RAAN: 347.9639 deg

Eccentricy: 0.00492933

Argument of periapsis: 160.7526 deg

Mean anomaly: 199.5527 deg

Mean motion: 14.09496484 rev/day

Mean motion (dot): 0.00003704 rev/day2

B* drag term: 0.0020874436 1/REarth

Two-line elements (TLE)

Creation date: Aug. 31, 2025, 2:26 a.m.

Reference frame: TEME

Reference center: EARTH

Epoch: Aug. 30, 2025, 1:30 p.m. UTC

TLE line 0: 0 COSMOS 1275 DEB

TLE line 1: 1 42107U 81053PT 25242.56279460 .00003704 00000-0 20874-2 0 9992

TLE line 2: 2 42107 82.8081 347.9639 0049293 160.7526 199.5527 14.09496484601888

Live tracking on map

Real-time ground track for satellite COSMOS 1275 DEB.

In-orbit conjunctions

A list of the most updated potential collisions computed for object COSMOS 1275 DEB.

Target Orbit TCA Probability of collision Miss distance Type
COSMOS 2251 DEB LEO 2025-05-26 23:09:08 0.0002006826 158.0 (m) DEBRIS
DODECAPOLE 2 SSO 2024-11-10 01:53:30 0.0002882508 662.0 (m) PAYLOAD

Associated space launch

Navigation satellite providing location information for the Tsiklon-B navigation system

COSMOS 1275 DEB was lifted into orbit during the mission ‘Kosmos-3M | Parus 27’, on board a Kosmos-3M space rocket.

The launch took place on June 4, 1981, 3:41 p.m. from 132/2.

For more information about the launch, click the button.

Launch to space Kosmos-3M | Parus 27
Kosmos-3M | Parus 27

Agency: N/A

Status: Launch Successful

Launch date: June 4, 1981, 3:41 p.m. UTC

Rocket: Kosmos-3M

Launch pad: 132/2

Location: Plesetsk Cosmodrome, Russian Federation

...

Latest news about this satellite

There are no fresh news available about this satellite. Check back as we update our databases every day.


Newsletter sign-up

Weekly statistics, charts and insights to help you stay on top of the space industry.